Weather History for Iowa City, IA

Change the Weather History Date:

Tuesday, February 26, 2013

  Actual Average Record
Temperature  
Mean Temperature 34 °F 30 °F  
Max Temperature 36 °F 38 °F 62 °F (1976)
Min Temperature 31 °F 22 °F -9 °F (1963)
Degree Days  
Heating Degree Days 31 35  
Month to date heating degree days 1010 1015  
Since 1 July heating degree days 4620 4882  
Cooling Degree Days 0 0  
Month to date cooling degree days 0 0  
Year to date cooling degree days 0 0  
Moisture  
Dew Point 28 °F    
Average Humidity 78    
Maximum Humidity 85    
Minimum Humidity 70    
Precipitation  
Precipitation 0.03 in 0.05 in 0.35 in (1962)
Month to date precipitation 1.27 1.14  
Year to date precipitation 2.41 2.06  
Sea Level Pressure  
Sea Level Pressure 29.69 in    
Wind  
Wind Speed 17 mph (NNE)    
Max Wind Speed 30 mph    
Max Gust Speed 40 mph    
Visibility 5 miles    
Events Rain , Snow    
T = Trace of Precipitation, MM = Missing Value Source: NWS Daily Summary

Daily Weather History Graph

Daily Weather History Graph

Search for Another Location

Airport:

Trip Planner

Search our weather history database for the weather conditions in past years. The results will help you decide how hot, cold, wet, or windy it might be!

Date:

Astronomy

Feb. 26, 2013 Rise Set
Actual Time 6:45 AM CST 5:53 PM CST
Civil Twilight 6:17 AM CST 6:21 PM CST
Nautical Twilight 5:45 AM CST 6:53 PM CST
Astronomical Twilight 5:12 AM CST 7:25 PM CST
Moon 7:12 PM CST (2/26) 6:46 AM CST (2/26)
Length of Visible Light 12h 04m
Length of Day
11h 08m
Full, 99% of the Moon is Illuminated
Feb 26
Full
Mar 4
Last Quarter
Mar 11
New
Mar 19
First Quarter
Mar 27
Full

Hourly Weather History & Observations

Time (CST) Temp. Windchill Dew Point Humidity Pressure Visibility Wind Dir Wind Speed Gust Speed Precip Events Conditions
12:52 AM 35.1 °F 27.4 °F 27.0 °F 72% 29.90 in 10.0 mi ENE 10.4 mph - N/A   Mostly Cloudy
1:52 AM 34.0 °F 25.0 °F 27.0 °F 75% 29.86 in 10.0 mi NE 12.7 mph - N/A   Overcast
2:52 AM 34.0 °F 23.8 °F 27.0 °F 75% 29.81 in 10.0 mi NE 16.1 mph - N/A   Overcast
3:52 AM 34.0 °F 22.4 °F 26.1 °F 73% 29.78 in 10.0 mi NE 20.7 mph 26.5 mph N/A   Overcast
4:52 AM 34.0 °F 23.0 °F 26.1 °F 73% 29.75 in 10.0 mi NE 18.4 mph 27.6 mph N/A   Overcast
5:52 AM 34.0 °F 23.4 °F 26.1 °F 73% 29.73 in 10.0 mi NE 17.3 mph 29.9 mph N/A   Overcast
6:52 AM 34.0 °F 23.8 °F 26.1 °F 73% 29.73 in 10.0 mi NE 16.1 mph 25.3 mph N/A   Overcast
7:52 AM 35.1 °F 25.5 °F 26.1 °F 70% 29.73 in 10.0 mi NE 15.0 mph 26.5 mph N/A   Overcast
8:52 AM 34.0 °F 22.1 °F 26.1 °F 73% 29.70 in 10.0 mi NNE 21.9 mph 28.8 mph N/A   Overcast
9:52 AM 35.1 °F 23.3 °F 26.1 °F 70% 29.68 in 10.0 mi NNE 23.0 mph 32.2 mph N/A   Overcast
10:52 AM 35.1 °F 24.1 °F 26.1 °F 70% 29.68 in 8.0 mi NNE 19.6 mph 32.2 mph 0.00 in Snow Light Snow
11:03 AM 35.6 °F 25.2 °F 26.6 °F 70% 29.65 in 3.0 mi NNE 18.4 mph 32.2 mph 0.00 in Snow Light Snow
11:42 AM 35.6 °F 24.0 °F 26.6 °F 70% 29.64 in 9.0 mi NNE 23.0 mph 27.6 mph 0.00 in   Overcast
11:52 AM 35.1 °F 23.8 °F 26.1 °F 70% 29.65 in 8.0 mi NNE 20.7 mph 33.4 mph 0.00 in Snow Light Snow
12:52 PM 35.1 °F 24.8 °F 26.1 °F 70% 29.64 in 5.0 mi NE 17.3 mph 32.2 mph 0.00 in Snow Light Snow
1:00 PM 33.8 °F 22.2 °F 26.6 °F 75% 29.62 in 3.0 mi NE 20.7 mph 28.8 mph 0.00 in Snow Light Snow
1:09 PM 33.8 °F 22.2 °F 26.6 °F 75% 29.62 in 2.0 mi NNE 20.7 mph 29.9 mph 0.00 in Snow Light Snow
1:23 PM 33.8 °F 22.5 °F 26.6 °F 75% 29.60 in 4.0 mi NNE 19.6 mph 27.6 mph 0.00 in Snow Light Snow
1:52 PM 34.0 °F 21.5 °F 26.1 °F 73% 29.62 in 3.0 mi NNE 24.2 mph 38.0 mph 0.00 in Snow Light Snow
2:29 PM 33.8 °F 22.2 °F 26.6 °F 75% 29.61 in 2.0 mi NNE 20.7 mph 39.1 mph 0.00 in Snow Light Snow
2:52 PM 33.1 °F 22.6 °F 28.0 °F 82% 29.63 in 1.5 mi NNE 16.1 mph 26.5 mph 0.00 in Snow Light Snow
3:10 PM 33.8 °F 23.2 °F 28.4 °F 81% 29.62 in 2.5 mi North 17.3 mph 25.3 mph 0.00 in Snow Light Snow
3:30 PM 32.0 °F 20.5 °F 28.4 °F 87% 29.63 in 1.2 mi NNE 18.4 mph 24.2 mph 0.00 in Snow Light Snow
3:38 PM 32.0 °F 22.1 °F 28.4 °F 87% 29.63 in 1.0 mi North 13.8 mph - 0.00 in Snow Light Snow
3:43 PM 32.0 °F 21.6 °F 28.4 °F 87% 29.64 in 0.8 mi North 15.0 mph 24.2 mph 0.00 in Snow Light Snow
3:52 PM 32.0 °F 20.8 °F 28.9 °F 88% 29.66 in 0.8 mi NNE 17.3 mph 23.0 mph 0.00 in Snow Light Snow
4:02 PM 32.0 °F 21.2 °F 28.4 °F 87% 29.64 in 0.8 mi North 16.1 mph - 0.00 in Snow Light Snow
4:21 PM 32.0 °F 22.1 °F 28.4 °F 87% 29.65 in 1.0 mi NNE 13.8 mph - 0.00 in Snow Light Snow
4:40 PM 32.0 °F 21.2 °F 28.4 °F 87% 29.66 in 1.5 mi NNE 16.1 mph 23.0 mph 0.01 in Snow Light Snow
4:48 PM 32.0 °F 21.6 °F 28.4 °F 87% 29.65 in 2.0 mi North 15.0 mph - 0.01 in Snow Light Snow
4:52 PM 32.0 °F 22.5 °F 28.9 °F 88% 29.67 in 2.5 mi North 12.7 mph 21.9 mph 0.01 in Snow Light Snow
4:59 PM 32.0 °F 21.2 °F 28.4 °F 87% 29.65 in 5.0 mi North 16.1 mph 25.3 mph 0.00 in Snow Light Snow
5:06 PM 32.0 °F 22.1 °F 28.4 °F 87% 29.66 in 7.0 mi North 13.8 mph 20.7 mph 0.00 in   Overcast
5:52 PM 32.0 °F 21.6 °F 28.9 °F 88% 29.69 in 8.0 mi NNE 15.0 mph 24.2 mph 0.00 in Rain Light Freezing Rain
6:02 PM 32.0 °F 21.2 °F 28.4 °F 87% 29.67 in 4.0 mi NNE 16.1 mph 24.2 mph 0.00 in Snow Light Snow
6:07 PM 32.0 °F 20.8 °F 28.4 °F 87% 29.67 in 1.8 mi North 17.3 mph 24.2 mph 0.00 in Snow Light Snow
6:21 PM 32.0 °F 22.1 °F 28.4 °F 87% 29.68 in 2.0 mi North 13.8 mph 23.0 mph 0.00 in Snow Light Snow
6:31 PM 32.0 °F 22.5 °F 28.4 °F 87% 29.68 in 5.0 mi North 12.7 mph 21.9 mph 0.00 in Snow Light Snow
6:44 PM 32.0 °F 23.6 °F 28.4 °F 87% 29.69 in 3.0 mi North 10.4 mph - 0.00 in Snow Light Snow
6:52 PM 32.0 °F 22.1 °F 28.9 °F 88% 29.71 in 4.0 mi North 13.8 mph 19.6 mph 0.00 in Snow Light Snow
7:09 PM 32.0 °F 22.5 °F 28.4 °F 87% 29.69 in 4.0 mi North 12.7 mph - 0.00 in Snow Light Snow
7:52 PM 32.0 °F 23.6 °F 28.9 °F 88% 29.71 in 4.0 mi North 10.4 mph 19.6 mph 0.01 in Snow Light Snow
8:01 PM 32.0 °F 22.1 °F 28.4 °F 87% 29.69 in 3.0 mi North 13.8 mph - 0.00 in Snow Light Snow
8:15 PM 32.0 °F 20.8 °F 28.4 °F 87% 29.70 in 2.0 mi North 17.3 mph 23.0 mph 0.00 in Snow Light Snow
8:23 PM 32.0 °F 20.5 °F 28.4 °F 87% 29.70 in 1.5 mi North 18.4 mph - 0.00 in Snow Light Snow
8:40 PM 32.0 °F 22.5 °F 28.4 °F 87% 29.70 in 1.8 mi North 12.7 mph 19.6 mph 0.00 in Snow Light Snow
8:52 PM 32.0 °F 22.5 °F 28.9 °F 88% 29.72 in 1.5 mi North 12.7 mph - 0.00 in Snow Light Snow
9:09 PM 32.0 °F 23.0 °F 28.4 °F 87% 29.70 in 1.8 mi North 11.5 mph - 0.00 in Snow Light Snow
9:16 PM 32.0 °F 22.5 °F 28.4 °F 87% 29.70 in 2.0 mi North 12.7 mph - 0.01 in Snow Light Snow
9:52 PM 32.0 °F 22.1 °F 28.9 °F 88% 29.72 in 3.0 mi North 13.8 mph 23.0 mph 0.01 in Snow Light Snow
11:15 PM 30.2 °F 18.5 °F 28.4 °F 93% 29.70 in 9.0 mi North 17.3 mph 21.9 mph 0.00 in Snow Light Snow
11:52 PM 30.9 °F 21.7 °F 28.0 °F 89% 29.73 in 7.0 mi North 11.5 mph - 0.00 in Snow Light Snow